| time (UTC) | temp F | wind direction | speed knots | gust knots | rain 1hr in | rain 24hr in | rain mn in | humidity % | barometer mb |
| 20260506191112 | 53 | 256 | 0.0 | 0.0 | 0.00 | 1.52 | 1.36 | 1 | 1005.9 |
| 20260506185111 | 52 | 256 | 0.0 | 2.6 | 0.00 | 1.57 | 1.36 | 1 | 1005.6 |
| 20260506184111 | 53 | 257 | 0.0 | 2.6 | 0.00 | 1.57 | 1.36 | 1 | 1005.4 |
| 20260506182111 | 53 | 256 | 1.7 | 6.1 | 0.00 | 1.57 | 1.36 | 1 | 1005.2 |
| 20260506181111 | 53 | 259 | 0.9 | 5.2 | 0.00 | 1.57 | 1.36 | 1 | 1004.9 |
| 20260506180111 | 53 | 259 | 0.9 | 2.6 | 0.00 | 1.57 | 1.36 | 1 | 1004.9 |
| 20260506175111 | 53 | 257 | 1.7 | 3.5 | 0.00 | 1.59 | 1.36 | 1 | 1004.9 |
| 20260506174111 | 53 | 261 | 1.7 | 3.5 | 0.00 | 1.59 | 1.36 | 1 | 1004.9 |
| 20260506173111 | 54 | 262 | 0.9 | 5.2 | 0.00 | 1.59 | 1.36 | 1 | 1005.0 |
| 20260506172111 | 54 | 265 | 1.7 | 7.8 | 0.00 | 1.59 | 1.36 | 1 | 1004.9 |
| 20260506171111 | 54 | 294 | 1.7 | 8.7 | 0.00 | 1.59 | 1.36 | 1 | 1004.9 |
| 20260506170111 | 55 | 267 | 3.5 | 8.7 | 0.00 | 1.59 | 1.36 | 1 | 1004.8 |
| 20260506165110 | 55 | 273 | 2.6 | 8.7 | 0.00 | 1.64 | 1.36 | 1 | 1004.7 |
| 20260506164110 | 55 | 271 | 0.9 | 6.1 | 0.00 | 1.64 | 1.36 | 1 | 1004.7 |
| 20260506162110 | 57 | 262 | 3.5 | 9.6 | 0.00 | 1.64 | 1.36 | 1 | 1004.6 |
| 20260506161110 | 57 | 260 | 1.7 | 7.8 | 0.00 | 1.64 | 1.36 | 1 | 1004.5 |
| 20260506160110 | 57 | 281 | 0.9 | 5.2 | 0.00 | 1.64 | 1.36 | 1 | 1004.5 |
| 20260506155110 | 58 | 273 | 0.9 | 3.5 | 0.00 | 1.67 | 1.36 | 1 | 1004.5 |
| 20260506154110 | 58 | 269 | 2.6 | 9.6 | 0.00 | 1.67 | 1.36 | 1 | 1004.5 |
| 20260506153110 | 58 | 286 | 4.3 | 8.7 | 0.00 | 1.67 | 1.36 | 1 | 1004.6 |
| 20260506152109 | 59 | 286 | 3.5 | 7.8 | 0.00 | 1.67 | 1.36 | 1 | 1004.6 |
| 20260506151109 | 59 | 275 | 3.5 | 7.8 | 0.00 | 1.67 | 1.36 | 1 | 1004.6 |
| 20260506150109 | 59 | 297 | 3.5 | 7.8 | 0.00 | 1.67 | 1.36 | 1 | 1004.6 |
| 20260506145109 | 60 | 282 | 1.7 | 6.1 | 0.00 | 1.67 | 1.36 | 1 | 1004.7 |
| 20260506144109 | 61 | 276 | 1.7 | 7.0 | 0.00 | 1.67 | 1.36 | 1 | 1004.6 |
| 20260506142114 | 60 | 265 | 0.0 | 1.7 | 0.00 | 1.67 | 1.36 | 1 | 1004.6 |
| 20260506141113 | 59 | 265 | 0.0 | 0.0 | 0.00 | 1.67 | 1.36 | 1 | 1004.7 |
| 20260506140114 | 59 | 265 | 0.0 | 2.6 | 0.00 | 1.67 | 1.36 | 1 | 1004.7 |
| 20260506135113 | 59 | 265 | 0.0 | 2.6 | 0.01 | 1.67 | 1.36 | 1 | 1004.8 |
| 20260506134113 | 59 | 265 | 0.0 | 0.0 | 0.02 | 1.67 | 1.36 | 1 | 1004.8 |
| 20260506133113 | 59 | 264 | 0.9 | 5.2 | 0.06 | 1.67 | 1.36 | 1 | 1004.8 |
| 20260506132113 | 59 | 41 | 0.0 | 0.0 | 0.09 | 1.67 | 1.36 | 1 | 1004.7 |
| 20260506131113 | 58 | 41 | 0.0 | 0.0 | 0.18 | 1.67 | 1.36 | 1 | 1004.6 |
| 20260506130113 | 57 | 41 | 0.0 | 0.0 | 0.18 | 1.67 | 1.36 | 1 | 1004.5 |
| 20260506125113 | 56 | 41 | 0.0 | 0.0 | 0.17 | 1.66 | 1.35 | 1 | 1004.6 |
| 20260506124113 | 56 | 41 | 0.0 | 0.0 | 0.19 | 1.65 | 1.35 | 1 | 1004.6 |
| 20260506122113 | 56 | 41 | 0.0 | 0.0 | 0.20 | 1.58 | 1.28 | 1 | 1004.5 |
| 20260506121112 | 56 | 41 | 0.0 | 0.0 | 0.14 | 1.49 | 1.18 | 1 | 1004.5 |
| 20260506120112 | 56 | 41 | 0.9 | 3.5 | 0.19 | 1.49 | 1.18 | 1 | 1004.4 |
| 20260506115112 | 56 | 40 | 0.0 | 1.7 | 0.20 | 1.49 | 1.18 | 1 | 1004.4 |
| 20260506114112 | 56 | 40 | 0.0 | 0.0 | 0.17 | 1.46 | 1.16 | 1 | 1004.3 |
| 20260506113112 | 56 | 40 | 0.0 | 0.0 | 0.13 | 1.43 | 1.12 | 1 | 1004.3 |
| 20260506112112 | 56 | 40 | 0.0 | 0.0 | 0.09 | 1.39 | 1.08 | 1 | 1004.3 |
| 20260506111112 | 56 | 40 | 0.0 | 0.0 | 0.06 | 1.35 | 1.04 | 1 | 1004.3 |
| 20260506110112 | 56 | 40 | 0.0 | 0.0 | 0.01 | 1.30 | 0.99 | 1 | 1004.3 |
| 20260506105112 | 56 | 40 | 0.0 | 4.3 | 0.00 | 1.29 | 0.98 | 1 | 1004.2 |
| 20260506104112 | 56 | 36 | 0.0 | 5.2 | 0.00 | 1.29 | 0.98 | 1 | 1004.2 |
| 20260506103111 | 57 | 36 | 1.7 | 5.2 | 0.00 | 1.29 | 0.98 | 1 | 1004.3 |
| 20260506102111 | 57 | 20 | 0.9 | 3.5 | 0.00 | 1.29 | 0.98 | 1 | 1004.3 |
| 20260506101111 | 56 | 20 | 0.9 | 4.3 | 0.00 | 1.29 | 0.98 | 1 | 1004.2 |
| 20260506100111 | 56 | 13 | 0.0 | 0.0 | 0.00 | 1.29 | 0.98 | 1 | 1004.2 |
| 20260506095111 | 55 | 13 | 0.0 | 0.0 | 0.00 | 1.29 | 0.98 | 1 | 1004.1 |
| 20260506094111 | 56 | 13 | 0.0 | 0.0 | 0.01 | 1.29 | 0.98 | 1 | 1004.2 |
| 20260506093111 | 55 | 13 | 0.0 | 0.0 | 0.01 | 1.29 | 0.98 | 1 | 1004.1 |
| 20260506092111 | 56 | 13 | 0.9 | 3.5 | 0.01 | 1.29 | 0.98 | 1 | 1004.0 |
| 20260506091111 | 55 | 13 | 0.0 | 0.0 | 0.02 | 1.29 | 0.98 | 1 | 1004.1 |
| 20260506090110 | 54 | 13 | 0.0 | 0.0 | 0.02 | 1.29 | 0.98 | 1 | 1004.1 |
| 20260506085110 | 54 | 13 | 0.0 | 0.0 | 0.02 | 1.29 | 0.98 | 1 | 1004.2 |
| 20260506084110 | 53 | 13 | 0.0 | 0.0 | 0.02 | 1.28 | 0.98 | 1 | 1004.1 |
| 20260506083110 | 53 | 13 | 0.0 | 0.0 | 0.02 | 1.28 | 0.98 | 1 | 1004.0 |
| 20260506082110 | 53 | 13 | 0.0 | 0.0 | 0.03 | 1.28 | 0.98 | 1 | 1003.9 |
| 20260506081110 | 53 | 13 | 0.0 | 0.0 | 0.02 | 1.27 | 0.96 | 1 | 1003.9 |
| 20260506073110 | 53 | 13 | 0.9 | 3.5 | 0.02 | 1.26 | 0.95 | 1 | 1003.7 |
| 20260506072110 | 53 | 13 | 0.0 | 0.0 | 0.02 | 1.25 | 0.94 | 1 | 1003.7 |
| 20260506070109 | 52 | 13 | 0.0 | 0.0 | 0.02 | 1.24 | 0.94 | 1 | 1003.7 |
| 20260506062109 | 52 | 13 | 0.0 | 0.0 | 0.01 | 1.24 | 0.93 | 1 | 1003.8 |
| 20260506061109 | 52 | 13 | 0.0 | 0.0 | 0.01 | 1.24 | 0.93 | 1 | 1003.8 |
| 20260506060109 | 52 | 13 | 0.0 | 0.0 | 0.00 | 1.23 | 0.92 | 1 | 1003.7 |
| 20260506050113 | 52 | 13 | 0.0 | 0.0 | 0.01 | 1.23 | 0.92 | 1 | 1003.7 |
| 20260506045113 | 52 | 13 | 0.0 | 0.0 | 0.01 | 1.23 | 0.92 | 1 | 1003.8 |
| 20260506044113 | 52 | 13 | 0.0 | 0.0 | 0.01 | 1.23 | 0.92 | 1 | 1003.9 |
| 20260506043113 | 52 | 13 | 0.0 | 0.0 | 0.02 | 1.23 | 0.92 | 1 | 1003.9 |
| 20260506042113 | 52 | 13 | 0.0 | 0.0 | 0.02 | 1.22 | 0.91 | 1 | 1004.0 |
| 20260506041113 | 52 | 13 | 0.0 | 0.0 | 0.05 | 1.22 | 0.91 | 1 | 1003.9 |
| 20260506040112 | 52 | 13 | 0.0 | 0.0 | 0.08 | 1.22 | 0.91 | 1 | 1003.9 |
| 20260506034113 | 52 | 13 | 0.0 | 2.6 | 0.14 | 1.23 | 0.91 | 1 | 1003.9 |
| 20260506033112 | 52 | 13 | 0.0 | 0.0 | 0.14 | 1.21 | 0.90 | 1 | 1003.9 |
| 20260506032112 | 52 | 13 | 0.0 | 0.0 | 0.17 | 1.20 | 0.89 | 1 | 1003.9 |
| 20260506031112 | 52 | 13 | 0.0 | 0.0 | 0.17 | 1.18 | 0.87 | 1 | 1004.1 |
| 20260506025112 | 52 | 13 | 0.0 | 0.0 | 0.17 | 1.14 | 0.82 | 1 | 1004.4 |
| 20260506024112 | 52 | 13 | 0.0 | 0.0 | 0.16 | 1.09 | 0.77 | 1 | 1004.5 |
| 20260506023112 | 53 | 13 | 0.0 | 0.0 | 0.21 | 1.08 | 0.76 | 1 | 1004.6 |
| 20260506022112 | 53 | 13 | 0.0 | 0.0 | 0.23 | 1.05 | 0.72 | 1 | 1004.7 |
| 20260506021111 | 53 | 13 | 0.0 | 0.0 | 0.22 | 1.02 | 0.69 | 1 | 1004.7 |
| 20260506015111 | 53 | 13 | 0.0 | 0.0 | 0.23 | 0.97 | 0.65 | 1 | 1004.7 |
| 20260506014111 | 53 | 13 | 0.0 | 0.0 | 0.20 | 0.94 | 0.61 | 1 | 1004.8 |
| 20260506013111 | 53 | 13 | 0.0 | 0.0 | 0.16 | 0.87 | 0.54 | 1 | 1004.9 |
| 20260506012111 | 53 | 13 | 0.0 | 0.0 | 0.13 | 0.82 | 0.50 | 1 | 1004.8 |
| 20260506011111 | 53 | 13 | 0.0 | 0.0 | 0.14 | 0.80 | 0.47 | 1 | 1004.9 |
| 20260506010111 | 53 | 13 | 0.0 | 0.0 | 0.14 | 0.77 | 0.45 | 1 | 1004.9 |
| 20260506004111 | 54 | 13 | 0.0 | 0.0 | 0.14 | 0.73 | 0.41 | 1 | 1005.2 |
| 20260506003110 | 54 | 13 | 0.0 | 0.0 | 0.13 | 0.71 | 0.39 | 1 | 1005.2 |
| 20260506002111 | 54 | 13 | 0.0 | 0.0 | 0.13 | 0.69 | 0.36 | 1 | 1005.3 |
| 20260506001110 | 54 | 13 | 0.0 | 0.0 | 0.14 | 0.65 | 0.33 | 1 | 1005.4 |
| 20260506000110 | 54 | 13 | 0.0 | 0.0 | 0.17 | 0.63 | 0.31 | 1 | 1005.5 |
| 20260505234110 | 54 | 13 | 0.0 | 0.0 | 0.22 | 0.59 | 0.27 | 1 | 1005.7 |
| 20260505233110 | 54 | 13 | 0.0 | 0.0 | 0.23 | 0.57 | 0.25 | 1 | 1005.7 |
| 20260505232110 | 54 | 13 | 0.0 | 0.0 | 0.22 | 0.56 | 0.24 | 1 | 1005.7 |
| 20260505231110 | 54 | 13 | 0.0 | 0.0 | 0.18 | 0.51 | 0.19 | 1 | 1005.9 |
| 20260505230110 | 54 | 13 | 0.0 | 0.0 | 0.13 | 0.46 | 0.14 | 1 | 1005.9 |
| 20260505225109 | 54 | 13 | 0.0 | 0.0 | 0.07 | 0.39 | 0.06 | 1 | 1005.9 |
| 20260505224109 | 54 | 13 | 0.0 | 0.0 | 0.06 | 0.37 | 0.05 | 1 | 1005.9 |
| 20260505223109 | 54 | 13 | 0.0 | 0.0 | 0.05 | 0.35 | 0.02 | 1 | 1005.9 |
| 20260505222109 | 54 | 13 | 0.0 | 0.0 | 0.05 | 0.34 | 0.02 | 1 | 1005.8 |
| 20260505221109 | 54 | 13 | 0.0 | 0.0 | 0.05 | 0.33 | 0.01 | 1 | 1005.9 |
| 20260505220109 | 54 | 13 | 0.0 | 0.0 | 0.06 | 0.33 | 0.01 | 1 | 1005.8 |
| 20260505215109 | 54 | 13 | 0.0 | 0.0 | 0.06 | 0.31 | 0.31 | 1 | 1005.9 |
| 20260505214114 | 54 | 13 | 0.0 | 0.0 | 0.07 | 0.31 | 0.31 | 1 | 1005.9 |
| 20260505213114 | 55 | 13 | 0.0 | 0.0 | 0.08 | 0.30 | 0.30 | 1 | 1006.0 |
| 20260505212114 | 55 | 13 | 0.0 | 0.0 | 0.09 | 0.29 | 0.29 | 1 | 1006.1 |
| 20260505211114 | 55 | 13 | 0.0 | 0.0 | 0.09 | 0.28 | 0.28 | 1 | 1006.1 |
| 20260505210114 | 55 | 13 | 0.0 | 0.0 | 0.09 | 0.27 | 0.27 | 1 | 1006.1 |
| 20260505205113 | 55 | 13 | 0.0 | 0.0 | 0.09 | 0.25 | 0.25 | 1 | 1006.1 |
| 20260505204113 | 55 | 13 | 0.0 | 0.0 | 0.09 | 0.24 | 0.24 | 1 | 1006.0 |
| 20260505203113 | 55 | 13 | 0.9 | 4.3 | 0.09 | 0.22 | 0.22 | 1 | 1006.0 |
| 20260505202113 | 55 | 13 | 0.0 | 2.6 | 0.08 | 0.20 | 0.20 | 1 | 1006.1 |
| 20260505201113 | 55 | 13 | 0.0 | 0.0 | 0.06 | 0.19 | 0.19 | 1 | 1006.1 |
| 20260505200113 | 55 | 13 | 0.0 | 0.0 | 0.05 | 0.17 | 0.17 | 1 | 1006.2 |
| 20260505195113 | 55 | 13 | 0.0 | 0.0 | 0.04 | 0.19 | 0.16 | 1 | 1006.2 |
| 20260505193113 | 56 | 13 | 0.0 | 0.0 | 0.02 | 0.17 | 0.13 | 1 | 1006.2 |
| 20260505192112 | 56 | 13 | 0.0 | 0.0 | 0.02 | 0.16 | 0.13 | 1 | 1006.2 |